Weather Roundup
Issued by NWS

Home | Current Version | Previous Version | Text Only | Print | Product List | Glossary On
Versions: 1 2 3 4 5 6 7 8 9 10 11 12 13 14 15 16 17 18 19 20 21 22 23 24 25 26 27 28 29 30 31 32 33 34 35 36 37 38 39 40 41 42 43 44 45 46 47 48 49 50
000
NZUS93 KARX 241010
HRRWXR

CURRENT HOURLY OBSERVATIONS ACROSS
MUCH OF THE UPPER MISSISSIPPI VALLEY
NATIONAL WEATHER SERVICE LA CROSSE WI
400 AM CST WED DEC 24 2014


...SOUTHEAST MINNESOTA...


CITY           SKY/WX    TMP DP  RH WIND       PRES   REMARKS
ROCHESTER      CLOUDY    32  30  92 N13       29.75F WCI  22
ROCHESTER/MAYO CLOUDY    33  32  95 NW7       29.75F WCI  27
WINONA         CLOUDY    36  32  87 N7        29.75F WCI  30
AUSTIN         CLOUDY    34  30  86 N10       29.76F WCI  26
ALBERT LEA     CLOUDY    34  34 100 N8        29.78S WCI  27
DODGE CENTER   CLOUDY    34  34 100 N10       29.76S WCI  26
PRESTON        CLOUDY    32  29  90 N14       29.73F WCI  22
OWATONNA       CLOUDY    34  30  86 NW7       29.79S WCI  28
FARIBAULT      CLOUDY    34  32  93 NW6       29.80S WCI  29
$$

...ELSEWHERE IN MINNESOTA...


CITY           SKY/WX    TMP DP  RH WIND       PRES   REMARKS
MINNEAPOLIS    CLOUDY    35  31  85 N9        29.81S WCI  28
INTNL FALLS    CLOUDY    33  31  92 N5        29.83F WCI  29
DULUTH         CLOUDY    34  29  82 N9        29.78R WCI  27
RED WING       CLOUDY    36  32  87 NW5       29.78S WCI  32
REDWOOD FALLS  CLOUDY    32  30  92 NW15G22   29.87S WCI  22
MANKATO        CLOUDY    34  30  86 N12G18    29.81F WCI  25
WORTHINGTON    CLOUDY    30 -18  11 NW21      29.86S WCI  17
FAIRMONT       CLOUDY    32  28  86 NW14      29.82S WCI  22
$$

...SOUTHWEST WISCONSIN...


CITY           SKY/WX    TMP DP  RH WIND       PRES   REMARKS
LA CROSSE      CLOUDY    35  31  85 NW12      29.72F WCI  27
PRAIRIE DU CHI CLOUDY    35  33  93 NW5       29.71F WCI  31
BOSCOBEL       CLOUDY    36  33  89 NW3       29.70F
LONE ROCK      CLOUDY    38  34  85 NW6       29.69F FOG     WCI  33
PLATTEVILLE    CLOUDY    34  33  98 CALM      29.68F VSB 3/4
FORT MC COY    CLOUDY    33  33 100 N8        29.71F WCI  26
CAMP DOUGLAS   CLOUDY    34  34 100 NW7       29.68F FOG     WCI  27
VIROQUA        CLOUDY    32  32 100 NW9       29.68F WCI  24
WIS DELLS      FOG       33  33  98 CALM      29.67F VSB<1/4
$$

...ELSEWHERE IN WISCONSIN...


CITY           SKY/WX    TMP DP  RH WIND       PRES   REMARKS
MILWAUKEE      FAIR      36  31  82 CALM      29.69S
MADISON        CLOUDY    34  33  96 CALM      29.67F
GREEN BAY      FOG       35  35 100 CALM      29.68F VSB 1/4
EAU CLAIRE     CLOUDY    34  29  82 N6        29.74F WCI  29
BLACK RVR FLS  CLOUDY    34  33  98 NW5       29.71F WCI  29
MEDFORD        LGT SNOW  31  30  96 N7        29.69S WCI  24
WAUSAU         CLOUDY    33  31  92 N7        29.66F WCI  27
WIS RAPIDS     CLOUDY    33  32  96 N8        29.68F FOG     WCI  26
MARSHFIELD     CLOUDY    33  31  92 N10       29.68F FOG     WCI  25
RICE LAKE      CLOUDY    33  31  91 N8        29.77F WCI  27
$$

...NORTHEAST IOWA...


CITY           SKY/WX    TMP DP  RH WIND       PRES   REMARKS
DECORAH        CLOUDY    34  32  93 N12       29.70F WCI  25
MASON CITY     CLOUDY    33  32  96 N12       29.79S WCI  24
CHARLES CITY   CLOUDY    34  32  93 N13       29.75F WCI  25
OELWEIN        CLOUDY    34  32  93 N10       29.72F WCI  26
$$

...ELSEWHERE IN IOWA...


CITY           SKY/WX    TMP DP  RH WIND       PRES   REMARKS
DES MOINES     LGT SNOW  34  32  92 N10       29.78F FOG     WCI  26
IOWA CITY      CLOUDY    35  33  92 NW8       29.72F WCI  29
FORT DODGE     CLOUDY    34  30  86 N7        29.81F WCI  28
$$

...NORTHERN ILLINOIS...


CITY           SKY/WX    TMP DP  RH WIND       PRES   REMARKS
CHICAGO-OHARE  CLOUDY    38  33  82 CALM      29.68S
CHICAGO-MIDWAY LGT RAIN  42  35  76 NE7       29.68F
MOLINE         CLOUDY    36  33  89 NW9       29.68F WCI  29
ROCKFORD       CLOUDY    36  34  92 CALM      29.69F FOG
PEORIA         CLOUDY    37  32  82 CALM      29.69F
$$

NOTE: "FAIR" INDICATES FEW OR NO CLOUDS BELOW 12,000 FEET WITH NO
SIGNIFICANT WEATHER AND/OR OBSTRUCTIONS TO VISIBILITY. WIND
SPEEDS ARE IN MILES-PER-HOUR.



USA.gov is the U.S. government's official web portal to all federal, state and local government web resources and services.